Location: ??????
(41.3164°N, 22.6615°E)
Time: 17:23:55
(UTC+00:00)

ZACube-1 - Pass Details

Date: 06 July 2022
Orbit: 582 x 661 km, 97.6° (Epoch: 09 August)

Event Time Altitude Azimuth Distance (km) Brightness Sun altitude
Rises 02:04:23 0° 17° (NNE) 2,973 ? -9.6°
Reaches altitude 10° 02:06:39 10° 21° (NNE) 2,067 ? -9.3°
Maximum altitude 02:11:05 55° 100° (E) 794 ? -8.6°
Drops below altitude 10° 02:15:32 10° 178° (S) 2,071 ? -8.0°
Sets 02:17:47 0° 183° (S) 2,979 ? -7.7°
